Time,TemperatureF,DewpointF,PressureIn,WindDirection,WindDirectionDegrees,WindSpeedMPH,WindSpeedGustMPH,Humidity,HourlyPrecipIn,Conditions,Clouds,dailyrainin,SolarRadiationWatts/m^2,SoftwareType,DateUTC
2013-09-06 00:00:00,73.4,66.5,29.94,SSW,213,0.0,1.0,79,0.00,,,0.00,0.0,WeatherDisplay:10.37,2013-09-05 22:00:00,
2013-09-06 00:05:00,73.3,66.4,29.94,SSW,213,0.0,4.0,79,0.00,,,0.00,0.0,WeatherDisplay:10.37,2013-09-05 22:05:00,
2013-09-06 00:10:00,73.5,66.2,29.94,SSW,213,0.0,0.0,78,0.00,,,0.00,0.0,WeatherDisplay:10.37,2013-09-05 22:10:00,
2013-09-06 00:15:00,73.6,66.3,29.94,SSW,213,0.0,1.0,78,0.00,,,0.00,0.0,WeatherDisplay:10.37,2013-09-05 22:15:00,
2013-09-06 00:20:00,73.9,66.2,29.94,SSW,213,0.0,0.0,77,0.00,,,0.00,0.0,WeatherDisplay:10.37,2013-09-05 22:20:00,
2013-09-06 00:25:00,74.1,66.0,29.93,SSW,213,0.0,0.0,76,0.00,,,0.00,0.0,WeatherDisplay:10.37,2013-09-05 22:25:00,
2013-09-06 00:30:00,74.1,66.0,29.93,SSW,213,0.0,1.0,76,0.00,,,0.00,0.0,WeatherDisplay:10.37,2013-09-05 22:30:00,
2013-09-06 00:35:00,74.1,66.0,29.93,SSW,213,0.0,0.0,76,0.00,,,0.00,0.0,WeatherDisplay:10.37,2013-09-05 22:35:00,
2013-09-06 00:40:00,74.2,65.7,29.93,SSW,213,0.0,1.0,75,0.00,,,0.00,0.0,WeatherDisplay:10.37,2013-09-05 22:40:00,
2013-09-06 00:45:00,74.3,65.9,29.93,SSW,213,0.0,1.0,75,0.00,,,0.00,0.0,WeatherDisplay:10.37,2013-09-05 22:45:00,
2013-09-06 00:50:00,74.2,65.8,29.93,SSW,213,3.0,4.0,75,0.00,,,0.00,0.0,WeatherDisplay:10.37,2013-09-05 22:50:00,
2013-09-06 00:55:00,74.1,65.7,29.93,SSW,213,1.0,3.0,75,0.00,,,0.00,0.0,WeatherDisplay:10.37,2013-09-05 22:55:00,
2013-09-06 01:00:00,74.2,65.7,29.93,SSW,212,1.0,5.0,75,0.00,,,0.00,0.0,WeatherDisplay:10.37,2013-09-05 23:00:00,
2013-09-06 01:05:00,74.3,65.9,29.93,SSW,212,0.0,5.0,75,0.00,,,0.00,0.0,WeatherDisplay:10.37,2013-09-05 23:05:00,
2013-09-06 01:10:00,74.4,65.6,29.93,SW,214,3.0,5.0,74,0.00,,,0.00,0.0,WeatherDisplay:10.37,2013-09-05 23:10:00,
2013-09-06 01:15:00,74.5,65.7,29.93,WSW,244,1.0,6.0,74,0.00,,,0.00,0.0,WeatherDisplay:10.37,2013-09-05 23:15:00,
2013-09-06 01:20:00,74.5,66.1,29.93,WNW,296,2.0,6.0,75,0.00,,,0.00,0.0,WeatherDisplay:10.37,2013-09-05 23:20:00,
2013-09-06 01:25:00,74.5,65.7,29.93,North,354,0.0,5.0,74,0.00,,,0.00,0.0,WeatherDisplay:10.37,2013-09-05 23:25:00,
2013-09-06 01:30:00,74.5,65.7,29.93,North,5,0.0,1.0,74,0.00,,,0.00,0.0,WeatherDisplay:10.37,2013-09-05 23:30:00,
2013-09-06 01:35:00,74.5,65.7,29.92,North,5,0.0,1.0,74,0.00,,,0.00,0.0,WeatherDisplay:10.37,2013-09-05 23:35:00,
2013-09-06 01:40:00,74.5,65.7,29.92,North,5,0.0,1.0,74,0.00,,,0.00,0.0,WeatherDisplay:10.37,2013-09-05 23:40:00,
2013-09-06 01:45:00,74.5,66.1,29.92,North,5,0.0,0.0,75,0.00,,,0.00,0.0,WeatherDisplay:10.37,2013-09-05 23:45:00,
2013-09-06 01:50:00,74.4,66.0,29.92,North,5,0.0,1.0,75,0.00,,,0.00,0.0,WeatherDisplay:10.37,2013-09-05 23:50:00,
2013-09-06 01:55:00,74.3,65.9,29.92,North,5,0.0,1.0,75,0.00,,,0.00,0.0,WeatherDisplay:10.37,2013-09-05 23:55:00,
2013-09-06 02:00:00,74.2,65.8,29.92,North,5,0.0,0.0,75,0.00,,,0.00,0.0,WeatherDisplay:10.37,2013-09-06 00:00:00,
2013-09-06 02:05:00,74.0,66.0,29.92,North,5,0.0,1.0,76,0.00,,,0.00,0.0,WeatherDisplay:10.37,2013-09-06 00:05:00,
2013-09-06 02:10:00,74.0,66.3,29.92,North,5,3.0,5.0,77,0.00,,,0.00,0.0,WeatherDisplay:10.37,2013-09-06 00:10:00,
2013-09-06 02:15:00,73.9,66.2,29.92,North,5,3.0,5.0,77,0.00,,,0.00,0.0,WeatherDisplay:10.37,2013-09-06 00:15:00,
2013-09-06 02:20:00,73.9,66.2,29.91,North,5,2.0,6.0,77,0.00,,,0.00,0.0,WeatherDisplay:10.37,2013-09-06 00:20:00,
2013-09-06 02:25:00,73.8,66.1,29.91,NNE,12,5.0,7.0,77,0.00,,,0.00,0.0,WeatherDisplay:10.37,2013-09-06 00:25:00,
2013-09-06 02:30:00,73.6,66.0,29.91,NNE,15,3.0,6.0,77,0.00,,,0.00,0.0,WeatherDisplay:10.37,2013-09-06 00:30:00,
2013-09-06 02:35:00,73.5,65.8,29.90,NNE,18,5.0,7.0,77,0.00,,,0.00,0.0,WeatherDisplay:10.37,2013-09-06 00:35:00,
2013-09-06 02:40:00,73.3,66.0,29.90,NNE,25,6.0,7.0,78,0.00,,,0.00,0.0,WeatherDisplay:10.37,2013-09-06 00:40:00,
2013-09-06 02:45:00,73.0,65.8,29.90,NE,35,5.0,7.0,78,0.00,,,0.00,0.0,WeatherDisplay:10.37,2013-09-06 00:45:00,
2013-09-06 02:50:00,72.7,65.4,29.90,NE,41,3.0,6.0,78,0.00,,,0.00,0.0,WeatherDisplay:10.37,2013-09-06 00:50:00,
2013-09-06 02:55:00,72.5,64.9,29.90,NE,43,0.0,4.0,77,0.00,,,0.00,0.0,WeatherDisplay:10.37,2013-09-06 00:55:00,
2013-09-06 03:00:00,72.5,64.5,29.90,NE,43,0.0,3.0,76,0.00,,,0.00,0.0,WeatherDisplay:10.37,2013-09-06 01:00:00,
2013-09-06 03:05:00,72.3,63.9,29.90,NE,43,5.0,5.0,75,0.00,,,0.00,0.0,WeatherDisplay:10.37,2013-09-06 01:05:00,
2013-09-06 03:10:00,72.2,63.8,29.90,NE,43,5.0,5.0,75,0.00,,,0.00,0.0,WeatherDisplay:10.37,2013-09-06 01:10:00,
2013-09-06 03:15:00,71.9,63.6,29.90,NE,43,6.0,7.0,75,0.00,,,0.00,0.0,WeatherDisplay:10.37,2013-09-06 01:15:00,
2013-09-06 03:20:00,71.9,63.1,29.90,NE,43,6.0,7.0,74,0.00,,,0.00,0.0,WeatherDisplay:10.37,2013-09-06 01:20:00,
2013-09-06 03:25:00,71.8,63.1,29.90,NE,44,6.0,8.0,74,0.00,,,0.00,0.0,WeatherDisplay:10.37,2013-09-06 01:25:00,
2013-09-06 03:30:00,71.8,62.7,29.89,NE,45,7.0,8.0,73,0.00,,,0.00,0.0,WeatherDisplay:10.37,2013-09-06 01:30:00,
2013-09-06 03:35:00,71.9,62.8,29.89,NE,46,6.0,8.0,73,0.00,,,0.00,0.0,WeatherDisplay:10.37,2013-09-06 01:35:00,
2013-09-06 03:40:00,71.9,62.8,29.89,NE,47,5.0,7.0,73,0.00,,,0.00,0.0,WeatherDisplay:10.37,2013-09-06 01:40:00,
2013-09-06 03:45:00,71.8,62.7,29.89,NE,48,3.0,5.0,73,0.00,,,0.00,0.0,WeatherDisplay:10.37,2013-09-06 01:45:00,
2013-09-06 03:50:00,71.8,62.7,29.89,NE,48,3.0,5.0,73,0.00,,,0.00,0.0,WeatherDisplay:10.37,2013-09-06 01:50:00,
2013-09-06 03:55:00,71.9,62.8,29.88,NE,44,5.0,6.0,73,0.00,,,0.00,0.0,WeatherDisplay:10.37,2013-09-06 01:55:00,
2013-09-06 04:05:00,71.9,63.1,29.88,NE,37,3.0,6.0,74,0.00,,,0.00,0.0,WeatherDisplay:10.37,2013-09-06 02:05:00,
2013-09-06 04:10:00,71.8,63.1,29.88,NE,35,3.0,5.0,74,0.00,,,0.00,0.0,WeatherDisplay:10.37,2013-09-06 02:10:00,
2013-09-06 04:15:00,71.8,63.1,29.88,NNE,33,0.0,5.0,74,0.00,,,0.00,0.0,WeatherDisplay:10.37,2013-09-06 02:15:00,
2013-09-06 04:20:00,71.7,62.9,29.88,NNE,33,0.0,4.0,74,0.00,,,0.00,0.0,WeatherDisplay:10.37,2013-09-06 02:20:00,
2013-09-06 04:25:00,71.5,62.4,29.88,NE,34,1.0,5.0,73,0.00,,,0.00,0.0,WeatherDisplay:10.37,2013-09-06 02:25:00,
2013-09-06 04:30:00,71.5,62.4,29.89,NE,34,0.0,0.0,73,0.00,,,0.00,0.0,WeatherDisplay:10.37,2013-09-06 02:30:00,
2013-09-06 04:35:00,71.4,62.3,29.88,NE,34,0.0,1.0,73,0.00,,,0.00,0.0,WeatherDisplay:10.37,2013-09-06 02:35:00,
2013-09-06 04:40:00,71.5,62.4,29.88,NE,34,0.0,1.0,73,0.00,,,0.00,0.0,WeatherDisplay:10.37,2013-09-06 02:40:00,
2013-09-06 04:45:00,71.5,62.4,29.88,NE,34,0.0,3.0,73,0.00,,,0.00,0.0,WeatherDisplay:10.37,2013-09-06 02:45:00,
2013-09-06 04:50:00,71.4,62.3,29.88,NE,34,1.0,3.0,73,0.00,,,0.00,0.0,WeatherDisplay:10.37,2013-09-06 02:50:00,
2013-09-06 04:55:00,71.3,62.2,29.88,NE,34,2.0,4.0,73,0.00,,,0.00,0.0,WeatherDisplay:10.37,2013-09-06 02:55:00,
2013-09-06 05:00:00,71.3,62.2,29.88,NE,34,2.0,4.0,73,0.00,,,0.00,0.0,WeatherDisplay:10.37,2013-09-06 03:00:00,
2013-09-06 05:05:00,71.2,62.1,29.89,NE,34,0.0,3.0,73,0.00,,,0.00,0.0,WeatherDisplay:10.37,2013-09-06 03:05:00,
2013-09-06 05:10:00,71.3,61.8,29.89,NE,34,0.0,0.0,72,0.00,,,0.00,0.0,WeatherDisplay:10.37,2013-09-06 03:10:00,
2013-09-06 05:15:00,71.3,61.8,29.89,NE,34,0.0,0.0,72,0.00,,,0.00,0.0,WeatherDisplay:10.37,2013-09-06 03:15:00,
2013-09-06 05:20:00,71.2,61.7,29.89,NE,34,0.0,1.0,72,0.00,,,0.00,0.0,WeatherDisplay:10.37,2013-09-06 03:20:00,
2013-09-06 05:25:00,71.1,62.0,29.89,NE,34,0.0,0.0,73,0.00,,,0.00,0.0,WeatherDisplay:10.37,2013-09-06 03:25:00,
2013-09-06 05:30:00,71.0,61.9,29.89,NE,34,0.0,0.0,73,0.00,,,0.00,0.0,WeatherDisplay:10.37,2013-09-06 03:30:00,
2013-09-06 05:35:00,71.0,61.9,29.89,NE,34,0.0,0.0,73,0.00,,,0.00,0.0,WeatherDisplay:10.37,2013-09-06 03:35:00,
2013-09-06 05:40:00,70.9,61.8,29.89,NE,34,0.0,0.0,73,0.00,,,0.00,0.0,WeatherDisplay:10.37,2013-09-06 03:40:00,
2013-09-06 05:45:00,70.7,62.0,29.89,NE,34,0.0,0.0,74,0.00,,,0.00,0.0,WeatherDisplay:10.37,2013-09-06 03:45:00,
2013-09-06 05:50:00,69.4,61.5,29.90,NE,34,0.0,1.0,76,0.00,,,0.00,0.0,WeatherDisplay:10.37,2013-09-06 03:50:00,
2013-09-06 05:55:00,68.6,61.4,29.90,NE,34,0.0,0.0,78,0.00,,,0.00,0.0,WeatherDisplay:10.37,2013-09-06 03:55:00,
2013-09-06 06:05:00,68.5,61.4,29.90,NE,40,0.0,0.0,78,0.00,OVC,,0.00,0.0,WeatherDisplay:10.37,2013-09-06 04:05:00,
2013-09-06 06:10:00,68.6,61.9,29.90,NE,36,0.0,0.0,79,0.00,,,0.00,0.0,WeatherDisplay:10.37,2013-09-06 04:10:00,
2013-09-06 06:20:00,69.5,61.9,29.90,NE,34,0.0,1.0,77,0.00,OVC,,0.00,0.0,WeatherDisplay:10.37,2013-09-06 04:20:00,
2013-09-06 06:25:00,69.5,61.6,29.90,NE,34,0.0,2.0,76,0.00,OVC,,0.00,0.0,WeatherDisplay:10.37,2013-09-06 04:25:00,
2013-09-06 06:30:00,69.5,61.6,29.90,NE,34,0.0,3.0,76,0.00,OVC,,0.00,0.0,WeatherDisplay:10.37,2013-09-06 04:30:00,
2013-09-06 06:35:00,69.5,61.6,29.90,NE,34,0.0,1.0,76,0.00,OVC,,0.00,0.0,WeatherDisplay:10.37,2013-09-06 04:35:00,
2013-09-06 06:40:00,69.3,61.4,29.90,NE,34,0.0,1.0,76,0.00,OVC,,0.00,0.0,WeatherDisplay:10.37,2013-09-06 04:40:00,
2013-09-06 06:45:00,69.1,61.2,29.90,NE,34,3.0,4.0,76,0.00,OVC,,0.00,5.0,WeatherDisplay:10.37,2013-09-06 04:45:00,
2013-09-06 06:50:00,69.1,61.2,29.90,NE,34,2.0,4.0,76,0.00,OVC,,0.00,9.0,WeatherDisplay:10.37,2013-09-06 04:50:00,
2013-09-06 06:55:00,69.2,61.3,29.90,NE,34,2.0,3.0,76,0.00,BKN,,0.00,12.0,WeatherDisplay:10.37,2013-09-06 04:55:00,
2013-09-06 07:00:00,69.4,61.5,29.91,NE,34,0.0,3.0,76,0.00,BKN,,0.00,14.0,WeatherDisplay:10.37,2013-09-06 05:00:00,
2013-09-06 07:05:00,69.5,61.6,29.91,NE,34,0.0,1.0,76,0.00,BKN,,0.00,18.0,WeatherDisplay:10.37,2013-09-06 05:05:00,
2013-09-06 07:10:00,69.5,61.6,29.91,NE,34,2.0,4.0,76,0.00,BKN,,0.00,21.0,WeatherDisplay:10.37,2013-09-06 05:10:00,
2013-09-06 07:15:00,69.5,61.6,29.91,NE,34,2.0,3.0,76,0.00,BKN,,0.00,25.0,WeatherDisplay:10.37,2013-09-06 05:15:00,
2013-09-06 07:20:00,69.5,61.6,29.91,NE,34,1.0,3.0,76,0.00,BKN,,0.00,32.0,WeatherDisplay:10.37,2013-09-06 05:20:00,
2013-09-06 07:25:00,69.6,61.7,29.91,NE,34,0.0,1.0,76,0.00,BKN,,0.00,42.0,WeatherDisplay:10.37,2013-09-06 05:25:00,
2013-09-06 07:30:00,69.8,61.9,29.90,NE,34,3.0,5.0,76,0.00,BKN,,0.00,51.0,WeatherDisplay:10.37,2013-09-06 05:30:00,
2013-09-06 07:35:00,70.0,62.1,29.90,NE,34,3.0,5.0,76,0.00,BKN,,0.00,63.0,WeatherDisplay:10.37,2013-09-06 05:35:00,
2013-09-06 07:40:00,70.3,62.0,29.90,NE,34,3.0,5.0,75,0.00,BKN,,0.00,76.0,WeatherDisplay:10.37,2013-09-06 05:40:00,
2013-09-06 07:45:00,70.6,62.3,29.90,NE,34,3.0,6.0,75,0.00,BKN,,0.00,88.0,WeatherDisplay:10.37,2013-09-06 05:45:00,
2013-09-06 07:50:00,70.8,62.5,29.90,NE,34,3.0,5.0,75,0.00,BKN,,0.00,104.0,WeatherDisplay:10.37,2013-09-06 05:50:00,
2013-09-06 07:55:00,71.0,62.3,29.90,NE,34,2.0,6.0,74,0.00,BKN,,0.00,120.0,WeatherDisplay:10.37,2013-09-06 05:55:00,
2013-09-06 08:00:00,71.2,62.5,29.90,NE,35,3.0,5.0,74,0.00,BKN,,0.00,139.0,WeatherDisplay:10.37,2013-09-06 06:00:00,
2013-09-06 08:05:00,71.5,62.4,29.90,NE,35,1.0,6.0,73,0.00,BKN,,0.00,155.0,WeatherDisplay:10.37,2013-09-06 06:05:00,
2013-09-06 08:10:00,71.9,62.7,29.90,NE,35,0.0,5.0,73,0.00,BKN,,0.00,178.0,WeatherDisplay:10.37,2013-09-06 06:10:00,
2013-09-06 08:15:00,72.6,63.0,29.91,NE,35,0.0,3.0,72,0.00,BKN,,0.00,195.0,WeatherDisplay:10.37,2013-09-06 06:15:00,
2013-09-06 08:20:00,72.8,62.8,29.91,NE,35,1.0,4.0,71,0.00,BKN,,0.00,202.0,WeatherDisplay:10.37,2013-09-06 06:20:00,
2013-09-06 08:25:00,72.7,62.8,29.91,NE,36,0.0,5.0,71,0.00,BKN,,0.00,216.0,WeatherDisplay:10.37,2013-09-06 06:25:00,
2013-09-06 08:30:00,72.9,62.5,29.91,NE,36,0.0,5.0,70,0.00,BKN,,0.00,230.0,WeatherDisplay:10.37,2013-09-06 06:30:00,
2013-09-06 08:35:00,73.5,62.7,29.91,NE,36,0.0,4.0,69,0.00,BKN,,0.00,248.0,WeatherDisplay:10.37,2013-09-06 06:35:00,
2013-09-06 08:40:00,73.8,62.6,29.91,NE,36,0.0,3.0,68,0.00,BKN,,0.00,264.0,WeatherDisplay:10.37,2013-09-06 06:40:00,
2013-09-06 08:45:00,74.0,62.8,29.91,NE,36,3.0,5.0,68,0.00,SCT,,0.00,278.0,WeatherDisplay:10.37,2013-09-06 06:45:00,
2013-09-06 08:50:00,74.1,62.4,29.91,NE,36,1.0,6.0,67,0.00,SCT,,0.00,294.0,WeatherDisplay:10.37,2013-09-06 06:50:00,
2013-09-06 08:55:00,74.4,62.3,29.91,NE,36,3.0,6.0,66,0.00,SCT,,0.00,306.0,WeatherDisplay:10.37,2013-09-06 06:55:00,
2013-09-06 09:00:00,74.6,62.5,29.91,NE,36,1.0,5.0,66,0.00,SCT,,0.00,322.0,WeatherDisplay:10.37,2013-09-06 07:00:00,
2013-09-06 09:05:00,75.0,62.9,29.91,NE,36,0.0,5.0,66,0.00,SCT,,0.00,338.0,WeatherDisplay:10.37,2013-09-06 07:05:00,
2013-09-06 09:10:00,75.4,62.9,29.91,NE,36,2.0,5.0,65,0.00,SCT,,0.00,350.0,WeatherDisplay:10.37,2013-09-06 07:10:00,
2013-09-06 09:15:00,75.7,63.6,29.91,NE,37,0.0,5.0,66,0.00,SCT,,0.00,366.0,WeatherDisplay:10.37,2013-09-06 07:15:00,
2013-09-06 09:20:00,75.5,62.9,29.91,NE,38,2.0,6.0,65,0.00,SCT,,0.00,380.0,WeatherDisplay:10.37,2013-09-06 07:20:00,
2013-09-06 09:30:00,77.2,64.1,29.91,NE,41,0.0,1.0,64,0.00,SCT,,0.00,408.0,WeatherDisplay:10.37,2013-09-06 07:30:00,
2013-09-06 09:35:00,77.3,63.8,29.91,NE,39,1.0,5.0,63,0.00,SCT,,0.00,424.0,WeatherDisplay:10.37,2013-09-06 07:35:00,
2013-09-06 09:40:00,77.3,63.7,29.91,NE,37,0.0,5.0,63,0.00,SCT,,0.00,438.0,WeatherDisplay:10.37,2013-09-06 07:40:00,
2013-09-06 09:45:00,78.6,64.0,29.91,NE,36,0.0,1.0,61,0.00,SCT,,0.00,452.0,WeatherDisplay:10.37,2013-09-06 07:45:00,
2013-09-06 09:50:00,77.3,64.2,29.91,NE,36,0.0,5.0,64,0.00,SCT,,0.00,466.0,WeatherDisplay:10.37,2013-09-06 07:50:00,
2013-09-06 09:55:00,78.7,64.6,29.91,NE,36,0.0,1.0,62,0.00,SCT,,0.00,482.0,WeatherDisplay:10.37,2013-09-06 07:55:00,
2013-09-06 10:00:00,78.8,64.2,29.91,NE,34,0.0,3.0,61,0.00,SCT,,0.00,492.0,WeatherDisplay:10.37,2013-09-06 08:00:00,
2013-09-06 10:05:00,79.2,64.6,29.91,NNE,32,0.0,5.0,61,0.00,SCT,,0.00,504.0,WeatherDisplay:10.37,2013-09-06 08:05:00,
2013-09-06 10:10:00,80.2,65.5,29.91,NNE,32,0.0,1.0,61,0.00,SCT,,0.00,517.0,WeatherDisplay:10.37,2013-09-06 08:10:00,
2013-09-06 10:15:00,80.1,65.0,29.91,NNE,32,0.0,1.0,60,0.00,SCT,,0.00,533.0,WeatherDisplay:10.37,2013-09-06 08:15:00,
2013-09-06 10:20:00,80.9,65.7,29.91,NNE,32,0.0,1.0,60,0.00,SCT,,0.00,545.0,WeatherDisplay:10.37,2013-09-06 08:20:00,
2013-09-06 10:25:00,80.6,64.9,29.91,NNE,32,0.0,1.0,59,0.00,SCT,,0.00,559.0,WeatherDisplay:10.37,2013-09-06 08:25:00,
2013-09-06 10:30:00,81.2,65.5,29.91,NNE,32,1.0,4.0,59,0.00,SCT,,0.00,568.0,WeatherDisplay:10.37,2013-09-06 08:30:00,
2013-09-06 10:35:00,81.0,65.3,29.91,NNE,29,0.0,5.0,59,0.00,SCT,,0.00,584.0,WeatherDisplay:10.37,2013-09-06 08:35:00,
2013-09-06 10:40:00,82.1,65.8,29.90,NNE,28,0.0,1.0,58,0.00,SCT,,0.00,594.0,WeatherDisplay:10.37,2013-09-06 08:40:00,
2013-09-06 10:45:00,80.3,63.7,29.90,NE,36,3.0,7.0,57,0.00,FEW,,0.00,606.0,WeatherDisplay:10.37,2013-09-06 08:45:00,
2013-09-06 10:50:00,80.5,64.9,29.90,NE,37,1.0,4.0,59,0.00,FEW,,0.00,621.0,WeatherDisplay:10.37,2013-09-06 08:50:00,
2013-09-06 10:55:00,80.9,63.7,29.90,NE,37,3.0,5.0,56,0.00,FEW,,0.00,631.0,WeatherDisplay:10.37,2013-09-06 08:55:00,
2013-09-06 11:00:00,80.3,63.2,29.90,NE,37,0.0,5.0,56,0.00,FEW,,0.00,638.0,WeatherDisplay:10.37,2013-09-06 09:00:00,
2013-09-06 11:05:00,81.3,63.6,29.90,NE,37,0.0,4.0,55,0.00,FEW,,0.00,650.0,WeatherDisplay:10.37,2013-09-06 09:05:00,
2013-09-06 11:10:00,82.5,64.1,29.90,NE,37,0.0,3.0,54,0.00,FEW,,0.00,657.0,WeatherDisplay:10.37,2013-09-06 09:10:00,
2013-09-06 11:15:00,83.3,63.3,29.90,NE,37,0.0,1.0,51,0.00,FEW,,0.00,666.0,WeatherDisplay:10.37,2013-09-06 09:15:00,
2013-09-06 11:20:00,83.5,62.9,29.90,NE,37,0.0,1.0,50,0.00,FEW,,0.00,673.0,WeatherDisplay:10.37,2013-09-06 09:20:00,
2013-09-06 11:30:00,82.8,63.9,29.90,NE,37,0.0,6.0,53,0.00,FEW,,0.00,696.0,WeatherDisplay:10.37,2013-09-06 09:30:00,
2013-09-06 11:35:00,83.7,63.6,29.90,NE,37,0.0,1.0,51,0.00,FEW,,0.00,705.0,WeatherDisplay:10.37,2013-09-06 09:35:00,
2013-09-06 11:40:00,83.9,63.9,29.90,NE,38,0.0,0.0,51,0.00,FEW,,0.00,715.0,WeatherDisplay:10.37,2013-09-06 09:40:00,
2013-09-06 11:45:00,84.6,63.3,29.90,NE,38,0.0,0.0,49,0.00,FEW,,0.00,722.0,WeatherDisplay:10.37,2013-09-06 09:45:00,
2013-09-06 11:50:00,84.9,63.0,29.90,NE,38,1.0,4.0,48,0.00,FEW,,0.00,728.0,WeatherDisplay:10.37,2013-09-06 09:50:00,
2013-09-06 11:55:00,84.0,62.2,29.89,NE,38,0.0,1.0,48,0.00,FEW,,0.00,738.0,WeatherDisplay:10.37,2013-09-06 09:55:00,
2013-09-06 12:00:00,85.5,63.6,29.89,NE,34,2.0,5.0,48,0.00,FEW,,0.00,738.0,WeatherDisplay:10.37,2013-09-06 10:00:00,
2013-09-06 12:05:00,84.9,61.8,29.89,NNE,25,2.0,6.0,46,0.00,FEW,,0.00,745.0,WeatherDisplay:10.37,2013-09-06 10:05:00,
2013-09-06 12:10:00,85.0,61.2,29.89,NNW,346,3.0,6.0,45,0.00,FEW,,0.00,745.0,WeatherDisplay:10.37,2013-09-06 10:10:00,
2013-09-06 12:15:00,85.5,61.1,29.89,NNW,332,3.0,7.0,44,0.00,FEW,,0.00,751.0,WeatherDisplay:10.37,2013-09-06 10:15:00,
2013-09-06 12:20:00,85.3,61.0,29.89,NNW,331,0.0,4.0,44,0.00,FEW,,0.00,756.0,WeatherDisplay:10.37,2013-09-06 10:20:00,
2013-09-06 12:25:00,84.1,60.5,29.89,NNW,330,0.0,2.0,45,0.00,CLR,,0.00,761.0,WeatherDisplay:10.37,2013-09-06 10:25:00,
2013-09-06 12:30:00,84.9,61.2,29.89,NNW,329,1.0,4.0,45,0.00,CLR,,0.00,765.0,WeatherDisplay:10.37,2013-09-06 10:30:00,
2013-09-06 12:35:00,85.6,61.2,29.89,NNW,328,2.0,4.0,44,0.00,CLR,,0.00,770.0,WeatherDisplay:10.37,2013-09-06 10:35:00,
2013-09-06 12:40:00,85.9,60.1,29.89,NNW,328,0.0,3.0,42,0.00,CLR,,0.00,777.0,WeatherDisplay:10.37,2013-09-06 10:40:00,
2013-09-06 12:45:00,86.0,60.2,29.89,NNW,328,0.0,4.0,42,0.00,CLR,,0.00,784.0,WeatherDisplay:10.37,2013-09-06 10:45:00,
2013-09-06 12:50:00,86.6,60.1,29.89,NNW,328,0.0,0.0,41,0.00,CLR,,0.00,789.0,WeatherDisplay:10.37,2013-09-06 10:50:00,
2013-09-06 12:55:00,87.4,60.1,29.89,NNW,328,0.0,0.0,40,0.00,CLR,,0.00,789.0,WeatherDisplay:10.37,2013-09-06 10:55:00,
2013-09-06 13:00:00,87.6,59.6,29.88,NNW,328,0.0,3.0,39,0.00,CLR,,0.00,789.0,WeatherDisplay:10.37,2013-09-06 11:00:00,
2013-09-06 13:05:00,86.8,59.6,29.88,West,273,0.0,4.0,40,0.00,CLR,,0.00,789.0,WeatherDisplay:10.37,2013-09-06 11:05:00,
2013-09-06 13:10:00,86.9,60.3,29.88,SW,236,0.0,1.0,41,0.00,CLR,,0.00,784.0,WeatherDisplay:10.37,2013-09-06 11:10:00,
2013-09-06 13:15:00,87.4,60.8,29.88,WSW,245,1.0,5.0,41,0.00,CLR,,0.00,789.0,WeatherDisplay:10.37,2013-09-06 11:15:00,
2013-09-06 13:20:00,86.2,61.1,29.88,West,259,1.0,4.0,43,0.00,CLR,,0.00,793.0,WeatherDisplay:10.37,2013-09-06 11:20:00,
2013-09-06 13:25:00,86.9,61.0,29.88,West,262,0.0,3.0,42,0.00,CLR,,0.00,788.0,WeatherDisplay:10.37,2013-09-06 11:25:00,
2013-09-06 13:30:00,86.4,59.9,29.88,West,262,0.0,1.0,41,0.00,CLR,,0.00,788.0,WeatherDisplay:10.37,2013-09-06 11:30:00,
2013-09-06 13:35:00,85.9,60.2,29.88,West,262,0.0,2.0,42,0.00,CLR,,0.00,788.0,WeatherDisplay:10.37,2013-09-06 11:35:00,
2013-09-06 13:40:00,86.9,60.4,29.88,West,265,0.0,4.0,41,0.00,CLR,,0.00,789.0,WeatherDisplay:10.37,2013-09-06 11:40:00,
2013-09-06 13:45:00,87.0,60.5,29.88,NW,309,1.0,5.0,41,0.00,CLR,,0.00,789.0,WeatherDisplay:10.37,2013-09-06 11:45:00,
2013-09-06 13:50:00,87.1,60.5,29.88,NW,325,0.0,3.0,41,0.00,CLR,,0.00,780.0,WeatherDisplay:10.37,2013-09-06 11:50:00,
2013-09-06 13:55:00,87.9,61.3,29.88,NW,319,1.0,6.0,41,0.00,CLR,,0.00,782.0,WeatherDisplay:10.37,2013-09-06 11:55:00,
2013-09-06 14:00:00,86.8,62.3,29.88,WNW,288,3.0,7.0,44,0.00,CLR,,0.00,775.0,WeatherDisplay:10.37,2013-09-06 12:00:00,
2013-09-06 14:05:00,87.1,65.6,29.88,WSW,245,1.0,7.0,49,0.00,CLR,,0.00,775.0,WeatherDisplay:10.37,2013-09-06 12:05:00,
2013-09-06 14:10:00,87.3,64.6,29.88,WSW,244,5.0,12.0,47,0.00,CLR,,0.00,752.0,WeatherDisplay:10.37,2013-09-06 12:10:00,
2013-09-06 14:15:00,86.0,64.6,29.88,SW,235,1.0,10.0,49,0.00,CLR,,0.00,744.0,WeatherDisplay:10.37,2013-09-06 12:15:00,
2013-09-06 14:20:00,86.0,64.6,29.88,SW,235,3.0,10.0,49,0.00,CLR,,0.00,754.0,WeatherDisplay:10.37,2013-09-06 12:20:00,
2013-09-06 14:25:00,85.7,66.1,29.88,WSW,244,5.0,14.0,52,0.00,CLR,,0.00,744.0,WeatherDisplay:10.37,2013-09-06 12:25:00,
2013-09-06 14:30:00,84.9,65.9,29.88,WSW,244,7.0,14.0,53,0.00,CLR,,0.00,735.0,WeatherDisplay:10.37,2013-09-06 12:30:00,
2013-09-06 14:35:00,86.0,67.5,29.88,WSW,238,3.0,10.0,54,0.00,CLR,,0.00,733.0,WeatherDisplay:10.37,2013-09-06 12:35:00,
2013-09-06 14:40:00,85.6,66.5,29.88,SW,230,8.0,13.0,53,0.00,CLR,,0.00,724.0,WeatherDisplay:10.37,2013-09-06 12:40:00,
2013-09-06 14:45:00,84.9,65.8,29.88,WSW,242,7.0,13.0,53,0.00,CLR,,0.00,717.0,WeatherDisplay:10.37,2013-09-06 12:45:00,
2013-09-06 14:50:00,84.5,66.0,29.88,WSW,238,9.0,16.0,54,0.00,CLR,,0.00,710.0,WeatherDisplay:10.37,2013-09-06 12:50:00,
2013-09-06 14:55:00,83.9,65.5,29.88,WSW,240,7.0,13.0,54,0.00,CLR,,0.00,698.0,WeatherDisplay:10.37,2013-09-06 12:55:00,
2013-09-06 15:00:00,84.8,66.3,29.88,SW,235,7.0,12.0,54,0.00,CLR,,0.00,696.0,WeatherDisplay:10.37,2013-09-06 13:00:00,
2013-09-06 15:05:00,83.7,65.8,29.88,WSW,243,9.0,14.0,55,0.00,CLR,,0.00,682.0,WeatherDisplay:10.37,2013-09-06 13:05:00,
2013-09-06 15:10:00,84.0,65.6,29.88,WSW,245,7.0,13.0,54,0.00,CLR,,0.00,589.0,WeatherDisplay:10.37,2013-09-06 13:10:00,
2013-09-06 15:15:00,84.3,65.9,29.88,SW,227,6.0,12.0,54,0.00,CLR,,0.00,670.0,WeatherDisplay:10.37,2013-09-06 13:15:00,
2013-09-06 15:20:00,85.0,66.5,29.88,SSW,209,1.0,10.0,54,0.00,CLR,,0.00,659.0,WeatherDisplay:10.37,2013-09-06 13:20:00,
2013-09-06 15:25:00,83.8,65.3,29.88,SSW,197,8.0,15.0,54,0.00,CLR,,0.00,654.0,WeatherDisplay:10.37,2013-09-06 13:25:00,
2013-09-06 15:30:00,83.4,66.1,29.88,SW,215,6.0,14.0,56,0.00,CLR,,0.00,645.0,WeatherDisplay:10.37,2013-09-06 13:30:00,
2013-09-06 15:35:00,83.3,66.5,29.88,SW,220,6.0,14.0,57,0.00,CLR,,0.00,631.0,WeatherDisplay:10.37,2013-09-06 13:35:00,
2013-09-06 15:40:00,83.3,66.4,29.88,SW,233,7.0,13.0,57,0.00,CLR,,0.00,622.0,WeatherDisplay:10.37,2013-09-06 13:40:00,
2013-09-06 15:45:00,83.7,65.8,29.88,WSW,240,3.0,10.0,55,0.00,CLR,,0.00,613.0,WeatherDisplay:10.37,2013-09-06 13:45:00,
2013-09-06 15:50:00,83.2,64.8,29.88,SW,227,2.0,12.0,54,0.00,CLR,,0.00,599.0,WeatherDisplay:10.37,2013-09-06 13:50:00,
2013-09-06 15:55:00,84.1,64.0,29.88,SW,217,6.0,12.0,51,0.00,CLR,,0.00,591.0,WeatherDisplay:10.37,2013-09-06 13:55:00,
2013-09-06 16:00:00,83.7,64.2,29.88,SW,220,5.0,12.0,52,0.00,CLR,,0.00,577.0,WeatherDisplay:10.37,2013-09-06 14:00:00,
2013-09-06 16:05:00,84.3,63.7,29.88,SW,221,5.0,12.0,50,0.00,CLR,,0.00,561.0,WeatherDisplay:10.37,2013-09-06 14:05:00,
2013-09-06 16:10:00,84.4,64.3,29.88,SSW,206,3.0,12.0,51,0.00,CLR,,0.00,557.0,WeatherDisplay:10.37,2013-09-06 14:10:00,
2013-09-06 16:15:00,83.3,62.1,29.88,SSW,197,7.0,12.0,49,0.00,CLR,,0.00,555.0,WeatherDisplay:10.37,2013-09-06 14:15:00,
2013-09-06 16:20:00,83.3,61.6,29.88,SSW,211,7.0,12.0,48,0.00,CLR,,0.00,547.0,WeatherDisplay:10.37,2013-09-06 14:20:00,
2013-09-06 16:25:00,84.1,61.7,29.88,SW,236,3.0,10.0,47,0.00,CLR,,0.00,538.0,WeatherDisplay:10.37,2013-09-06 14:25:00,
2013-09-06 16:30:00,84.2,61.8,29.88,WSW,246,0.0,10.0,47,0.00,CLR,,0.00,529.0,WeatherDisplay:10.37,2013-09-06 14:30:00,
2013-09-06 16:35:00,84.4,62.0,29.88,WSW,237,1.0,7.0,47,0.00,CLR,,0.00,520.0,WeatherDisplay:10.37,2013-09-06 14:35:00,
2013-09-06 16:40:00,84.5,62.6,29.88,SSW,212,0.0,10.0,48,0.00,CLR,,0.00,510.0,WeatherDisplay:10.37,2013-09-06 14:40:00,
2013-09-06 16:45:00,84.1,59.8,29.88,SSW,213,3.0,12.0,44,0.00,CLR,,0.00,504.0,WeatherDisplay:10.37,2013-09-06 14:45:00,
2013-09-06 16:50:00,84.1,59.9,29.88,SSW,208,3.0,10.0,44,0.00,CLR,,0.00,496.0,WeatherDisplay:10.37,2013-09-06 14:50:00,
2013-09-06 16:55:00,83.3,61.6,29.88,SSW,198,7.0,10.0,48,0.00,CLR,,0.00,485.0,WeatherDisplay:10.37,2013-09-06 14:55:00,
2013-09-06 17:00:00,83.2,61.5,29.88,SSW,193,7.0,12.0,48,0.00,CLR,,0.00,473.0,WeatherDisplay:10.37,2013-09-06 15:00:00,
2013-09-06 17:05:00,82.3,62.9,29.88,SSW,192,8.0,12.0,52,0.00,CLR,,0.00,469.0,WeatherDisplay:10.37,2013-09-06 15:05:00,
2013-09-06 17:10:00,82.0,64.2,29.88,SSW,193,6.0,10.0,55,0.00,CLR,,0.00,455.0,WeatherDisplay:10.37,2013-09-06 15:10:00,
2013-09-06 17:15:00,82.5,64.2,29.88,SSW,195,0.0,7.0,54,0.00,CLR,,0.00,441.0,WeatherDisplay:10.37,2013-09-06 15:15:00,
2013-09-06 17:20:00,83.1,64.2,29.88,SSW,196,0.0,12.0,53,0.00,CLR,,0.00,427.0,WeatherDisplay:10.37,2013-09-06 15:20:00,
2013-09-06 17:25:00,83.3,64.4,29.88,SW,227,5.0,12.0,53,0.00,CLR,,0.00,415.0,WeatherDisplay:10.37,2013-09-06 15:25:00,
2013-09-06 17:30:00,82.8,64.4,29.88,WSW,243,6.0,10.0,54,0.00,CLR,,0.00,399.0,WeatherDisplay:10.37,2013-09-06 15:30:00,
2013-09-06 17:35:00,82.5,65.2,29.89,WSW,244,1.0,10.0,56,0.00,CLR,,0.00,383.0,WeatherDisplay:10.37,2013-09-06 15:35:00,
2013-09-06 17:40:00,82.3,65.0,29.89,WSW,246,0.0,10.0,56,0.00,CLR,,0.00,367.0,WeatherDisplay:10.37,2013-09-06 15:40:00,
2013-09-06 17:45:00,82.2,65.4,29.88,WSW,238,0.0,9.0,57,0.00,CLR,,0.00,350.0,WeatherDisplay:10.37,2013-09-06 15:45:00,
2013-09-06 17:50:00,82.4,65.1,29.88,SSW,206,5.0,9.0,56,0.00,CLR,,0.00,330.0,WeatherDisplay:10.37,2013-09-06 15:50:00,
2013-09-06 17:55:00,81.7,64.5,29.88,SSW,206,5.0,10.0,56,0.00,CLR,,0.00,322.0,WeatherDisplay:10.37,2013-09-06 15:55:00,
2013-09-06 18:00:00,81.2,63.5,29.88,SSW,206,7.0,13.0,55,0.00,CLR,,0.00,265.0,WeatherDisplay:10.37,2013-09-06 16:00:00,
2013-09-06 18:05:00,81.3,64.1,29.88,SSW,213,3.0,12.0,56,0.00,CLR,,0.00,299.0,WeatherDisplay:10.37,2013-09-06 16:05:00,
2013-09-06 18:10:00,81.0,65.8,29.88,SW,214,0.0,12.0,60,0.00,CLR,,0.00,287.0,WeatherDisplay:10.37,2013-09-06 16:10:00,
2013-09-06 18:15:00,81.5,65.8,29.89,SW,222,0.0,9.0,59,0.00,CLR,,0.00,267.0,WeatherDisplay:10.37,2013-09-06 16:15:00,
2013-09-06 18:20:00,81.0,64.3,29.89,SSW,211,5.0,9.0,57,0.00,CLR,,0.00,243.0,WeatherDisplay:10.37,2013-09-06 16:20:00,
2013-09-06 18:25:00,80.9,64.7,29.89,SSW,206,0.0,5.0,58,0.00,CLR,,0.00,211.0,WeatherDisplay:10.37,2013-09-06 16:25:00,
2013-09-06 18:30:00,80.4,65.7,29.89,SSW,206,5.0,9.0,61,0.00,CLR,,0.00,188.0,WeatherDisplay:10.37,2013-09-06 16:30:00,
2013-09-06 18:35:00,80.5,65.8,29.89,SSW,206,2.0,7.0,61,0.00,CLR,,0.00,156.0,WeatherDisplay:10.37,2013-09-06 16:35:00,
2013-09-06 18:40:00,80.1,66.4,29.90,SSW,200,3.0,7.0,63,0.00,OVC,,0.00,155.0,WeatherDisplay:10.37,2013-09-06 16:40:00,
2013-09-06 18:45:00,79.9,66.6,29.90,SSW,196,1.0,7.0,64,0.00,OVC,,0.00,130.0,WeatherDisplay:10.37,2013-09-06 16:45:00,
2013-09-06 18:50:00,80.3,66.6,29.90,SW,232,6.0,9.0,63,0.00,OVC,,0.00,116.0,WeatherDisplay:10.37,2013-09-06 16:50:00,
2013-09-06 18:55:00,80.2,66.9,29.90,WSW,248,2.0,8.0,64,0.00,OVC,,0.00,88.0,WeatherDisplay:10.37,2013-09-06 16:55:00,
2013-09-06 19:00:00,80.5,67.2,29.90,WSW,254,2.0,5.0,64,0.00,OVC,,0.00,79.0,WeatherDisplay:10.37,2013-09-06 17:00:00,
2013-09-06 19:05:00,80.4,66.6,29.91,WSW,246,2.0,6.0,63,0.00,OVC,,0.00,72.0,WeatherDisplay:10.37,2013-09-06 17:05:00,
2013-09-06 19:10:00,80.2,66.9,29.91,WSW,245,2.0,6.0,64,0.00,OVC,,0.00,62.0,WeatherDisplay:10.37,2013-09-06 17:10:00,
2013-09-06 19:15:00,79.8,67.0,29.91,WSW,241,0.0,1.0,65,0.00,OVC,,0.00,46.0,WeatherDisplay:10.37,2013-09-06 17:15:00,
2013-09-06 19:20:00,79.7,67.3,29.91,WSW,237,1.0,4.0,66,0.00,OVC,,0.00,37.0,WeatherDisplay:10.37,2013-09-06 17:20:00,
2013-09-06 19:25:00,79.5,67.6,29.91,SW,235,0.0,3.0,67,0.00,OVC,,0.00,30.0,WeatherDisplay:10.37,2013-09-06 17:25:00,
2013-09-06 19:30:00,79.4,67.9,29.91,SW,235,0.0,0.0,68,0.00,OVC,,0.00,23.0,WeatherDisplay:10.37,2013-09-06 17:30:00,
2013-09-06 19:35:00,79.4,67.9,29.91,SW,235,0.0,0.0,68,0.00,OVC,,0.00,14.0,WeatherDisplay:10.37,2013-09-06 17:35:00,
2013-09-06 19:40:00,79.3,67.8,29.91,SW,235,0.0,4.0,68,0.00,OVC,,0.00,11.0,WeatherDisplay:10.37,2013-09-06 17:40:00,
2013-09-06 19:45:00,79.0,67.5,29.92,WSW,241,0.0,4.0,68,0.00,OVC,,0.00,7.0,WeatherDisplay:10.37,2013-09-06 17:45:00,
2013-09-06 19:50:00,78.9,67.9,29.92,WSW,244,0.0,2.0,69,0.00,OVC,,0.00,0.0,WeatherDisplay:10.37,2013-09-06 17:50:00,
2013-09-06 19:55:00,78.9,67.8,29.92,WSW,244,0.0,0.0,69,0.00,OVC,,0.00,0.0,WeatherDisplay:10.37,2013-09-06 17:55:00,
2013-09-06 20:00:00,78.8,67.8,29.92,WSW,244,0.0,1.0,69,0.00,,,0.00,0.0,WeatherDisplay:10.37,2013-09-06 18:00:00,
2013-09-06 20:05:00,78.7,67.7,29.92,WSW,244,0.0,0.0,69,0.00,,,0.00,0.0,WeatherDisplay:10.37,2013-09-06 18:05:00,
2013-09-06 20:10:00,78.7,67.7,29.93,WSW,244,0.0,0.0,69,0.00,,,0.00,0.0,WeatherDisplay:10.37,2013-09-06 18:10:00,
2013-09-06 20:15:00,78.6,67.5,29.93,WSW,244,0.0,1.0,69,0.00,,,0.00,0.0,WeatherDisplay:10.37,2013-09-06 18:15:00,
2013-09-06 20:20:00,78.4,67.4,29.93,WSW,244,0.0,3.0,69,0.00,,,0.00,0.0,WeatherDisplay:10.37,2013-09-06 18:20:00,
2013-09-06 20:25:00,78.4,67.4,29.93,NW,313,0.0,6.0,69,0.00,,,0.00,0.0,WeatherDisplay:10.37,2013-09-06 18:25:00,
2013-09-06 20:30:00,78.4,67.8,29.93,NNW,329,0.0,3.0,70,0.00,,,0.00,0.0,WeatherDisplay:10.37,2013-09-06 18:30:00,
2013-09-06 20:35:00,78.3,67.7,29.93,NNW,328,0.0,0.0,70,0.00,,,0.00,0.0,WeatherDisplay:10.37,2013-09-06 18:35:00,
2013-09-06 20:40:00,78.2,67.6,29.93,NNW,328,0.0,0.0,70,0.00,,,0.00,0.0,WeatherDisplay:10.37,2013-09-06 18:40:00,
2013-09-06 20:45:00,78.1,67.5,29.93,NNW,328,0.0,1.0,70,0.00,,,0.00,0.0,WeatherDisplay:10.37,2013-09-06 18:45:00,
2013-09-06 20:50:00,78.0,67.4,29.93,NNW,328,0.0,1.0,70,0.00,,,0.00,0.0,WeatherDisplay:10.37,2013-09-06 18:50:00,
2013-09-06 20:55:00,78.0,67.4,29.93,NNW,328,0.0,1.0,70,0.00,,,0.00,0.0,WeatherDisplay:10.37,2013-09-06 18:55:00,
2013-09-06 21:00:00,77.9,67.4,29.93,NNW,328,0.0,0.0,70,0.00,,,0.00,0.0,WeatherDisplay:10.37,2013-09-06 19:00:00,
2013-09-06 21:05:00,77.9,67.3,29.93,NNW,328,0.0,1.0,70,0.00,,,0.00,0.0,WeatherDisplay:10.37,2013-09-06 19:05:00,
2013-09-06 21:10:00,77.9,67.7,29.93,NNW,328,0.0,1.0,71,0.00,,,0.00,0.0,WeatherDisplay:10.37,2013-09-06 19:10:00,
2013-09-06 21:20:00,77.9,67.7,29.93,NNW,328,0.0,0.0,71,0.00,,,0.00,0.0,WeatherDisplay:10.37,2013-09-06 19:20:00,
2013-09-06 21:25:00,77.8,67.6,29.93,NNW,328,0.0,0.0,71,0.00,,,0.00,0.0,WeatherDisplay:10.37,2013-09-06 19:25:00,
2013-09-06 21:30:00,77.7,68.0,29.93,NNW,328,0.0,1.0,72,0.00,,,0.00,0.0,WeatherDisplay:10.37,2013-09-06 19:30:00,
2013-09-06 21:35:00,77.6,67.8,29.93,NNW,328,0.0,0.0,72,0.00,,,0.00,0.0,WeatherDisplay:10.37,2013-09-06 19:35:00,
2013-09-06 21:40:00,77.4,68.1,29.94,NNW,328,0.0,0.0,73,0.00,,,0.00,0.0,WeatherDisplay:10.37,2013-09-06 19:40:00,
2013-09-06 21:45:00,77.2,67.9,29.94,NNW,328,0.0,0.0,73,0.00,,,0.00,0.0,WeatherDisplay:10.37,2013-09-06 19:45:00,
2013-09-06 21:50:00,77.0,68.1,29.94,NNW,328,0.0,0.0,74,0.00,,,0.00,0.0,WeatherDisplay:10.37,2013-09-06 19:50:00,
2013-09-06 21:55:00,76.9,67.9,29.94,NNW,328,0.0,0.0,74,0.00,,,0.00,0.0,WeatherDisplay:10.37,2013-09-06 19:55:00,
2013-09-06 22:00:00,76.7,68.2,29.94,NNW,328,0.0,0.0,75,0.00,,,0.00,0.0,WeatherDisplay:10.37,2013-09-06 20:00:00,
2013-09-06 22:05:00,76.7,68.2,29.94,NNW,328,0.0,0.0,75,0.00,,,0.00,0.0,WeatherDisplay:10.37,2013-09-06 20:05:00,
2013-09-06 22:10:00,76.4,67.9,29.94,NNW,328,0.0,0.0,75,0.00,,,0.00,0.0,WeatherDisplay:10.37,2013-09-06 20:10:00,
2013-09-06 22:15:00,76.3,67.8,29.94,NNW,328,0.0,0.0,75,0.00,,,0.00,0.0,WeatherDisplay:10.37,2013-09-06 20:15:00,
2013-09-06 22:20:00,76.3,68.2,29.94,NNW,328,0.0,0.0,76,0.00,,,0.00,0.0,WeatherDisplay:10.37,2013-09-06 20:20:00,
2013-09-06 22:25:00,76.2,68.1,29.94,NNW,328,0.0,0.0,76,0.00,,,0.00,0.0,WeatherDisplay:10.37,2013-09-06 20:25:00,
2013-09-06 22:30:00,76.2,67.7,29.94,NNW,328,0.0,0.0,75,0.00,,,0.00,0.0,WeatherDisplay:10.37,2013-09-06 20:30:00,
2013-09-06 22:40:00,76.4,68.3,29.94,NNW,328,0.0,0.0,76,0.00,,,0.00,0.0,WeatherDisplay:10.37,2013-09-06 20:40:00,
2013-09-06 22:45:00,75.9,67.8,29.94,NNW,328,0.0,0.0,76,0.00,,,0.00,0.0,WeatherDisplay:10.37,2013-09-06 20:45:00,
2013-09-06 22:50:00,76.0,67.8,29.94,NNW,330,1.0,4.0,76,0.00,,,0.00,0.0,WeatherDisplay:10.37,2013-09-06 20:50:00,
2013-09-06 22:55:00,75.5,67.8,29.94,NNW,347,0.0,3.0,77,0.00,,,0.00,0.0,WeatherDisplay:10.37,2013-09-06 20:55:00,
2013-09-06 23:00:00,75.4,67.7,29.94,North,355,0.0,0.0,77,0.00,,,0.00,0.0,WeatherDisplay:10.37,2013-09-06 21:00:00,
2013-09-06 23:05:00,75.4,67.7,29.95,North,355,0.0,0.0,77,0.00,,,0.00,0.0,WeatherDisplay:10.37,2013-09-06 21:05:00,
2013-09-06 23:10:00,75.4,68.1,29.95,North,355,0.0,1.0,78,0.00,,,0.00,0.0,WeatherDisplay:10.37,2013-09-06 21:10:00,
2013-09-06 23:15:00,75.5,68.2,29.95,North,355,0.0,0.0,78,0.00,,,0.00,0.0,WeatherDisplay:10.37,2013-09-06 21:15:00,
2013-09-06 23:20:00,75.5,68.5,29.95,North,355,1.0,3.0,79,0.00,,,0.00,0.0,WeatherDisplay:10.37,2013-09-06 21:20:00,
2013-09-06 23:25:00,75.6,68.6,29.95,North,355,0.0,3.0,79,0.00,,,0.00,0.0,WeatherDisplay:10.37,2013-09-06 21:25:00,
2013-09-06 23:30:00,75.6,68.6,29.95,North,355,0.0,0.0,79,0.00,,,0.00,0.0,WeatherDisplay:10.37,2013-09-06 21:30:00,
2013-09-06 23:35:00,75.5,68.5,29.95,North,355,0.0,0.0,79,0.00,,,0.00,0.0,WeatherDisplay:10.37,2013-09-06 21:35:00,
2013-09-06 23:40:00,75.3,68.4,29.95,North,355,0.0,0.0,79,0.00,,,0.00,0.0,WeatherDisplay:10.37,2013-09-06 21:40:00,
2013-09-06 23:45:00,75.2,68.2,29.95,North,355,0.0,0.0,79,0.00,,,0.00,0.0,WeatherDisplay:10.37,2013-09-06 21:45:00,
2013-09-06 23:50:00,75.1,68.1,29.95,North,355,0.0,0.0,79,0.00,,,0.00,0.0,WeatherDisplay:10.37,2013-09-06 21:50:00,
2013-09-06 23:55:00,74.9,68.3,29.95,North,355,0.0,0.0,80,0.00,,,0.00,0.0,WeatherDisplay:10.37,2013-09-06 21:55:00,